Weather History for Rae Point, NT

Change the Weather History Date:

Wednesday, October 2, 2013

  Actual Average Record
Temperature  
Mean Temperature 12 °F -  
Max Temperature 17 °F - - ()
Min Temperature 8 °F - - ()
Degree Days  
Heating Degree Days 52    
Moisture  
Dew Point 10 °F    
Average Humidity 86    
Maximum Humidity 91    
Minimum Humidity 78    
Precipitation  
Precipitation 0.00 in - - ()
Sea Level Pressure  
Sea Level Pressure 30.38 in    
Wind  
Wind Speed 16 mph ()    
Max Wind Speed 23 mph    
Max Gust Speed -    
T = Trace of Precipitation, MM = Missing Value Source: Averaged Metar Reports

Daily Weather History Graph

Daily Weather History Graph

Search for Another Location

Airport:

Trip Planner

Search our weather history database for the weather conditions in past years. The results will help you decide how hot, cold, wet, or windy it might be!

Date:

Astronomy

Oct. 02, 2013 Rise Set
Actual Time 7:37 AM MDT 6:04 PM MDT
Civil Twilight 6:14 AM MDT 7:26 PM MDT
Nautical Twilight 4:31 AM MDT 9:07 PM MDT
Astronomical Twilight 1:37 AM MDT 11:44 PM MDT
Moon 3:39 AM MDT (10/2) 5:44 PM MDT (10/2)
Length of Visible Light 13h 11m
Length of Day
10h 27m
Waning Crescent, 6% of the Moon is Illuminated
Oct 2
Waning Crescent
Oct 4
New
Oct 11
First Quarter
Oct 18
Full
Oct 26
Last Quarter

Hourly Weather History & Observations

Time (MDT) Temp. Windchill Dew Point Humidity Pressure Visibility Wind Dir Wind Speed Gust Speed Precip Events Conditions
12:00 AM 8 °F - 4 °F 78% 30.32 in - West 18.4 mph - -  
12:00 AM 8.1 °F -10.7 °F 4.5 °F 85% 30.32 in - West 18.4 mph - N/A   Unknown
1:00 AM 10.2 °F -6.3 °F 7.3 °F 88% 30.34 in - West 15.0 mph - N/A   Unknown
2:00 AM 13.1 °F -5.9 °F 9.5 °F 86% 30.34 in - West 23.0 mph - N/A   Unknown
3:00 AM 12.0 °F -7.3 °F 8.1 °F 84% 30.34 in - WSW 23.0 mph - N/A   Unknown
4:00 AM 12.2 °F -5.8 °F 9.1 °F 88% 30.35 in - WSW 19.6 mph - N/A   Unknown
5:00 AM 13.5 °F -5.0 °F 10.2 °F 87% 30.36 in - West 21.9 mph - N/A   Unknown
6:00 AM 10 °F - 8 °F 85% 30.38 in - West 17.3 mph - -  
6:00 AM 10.4 °F -7.2 °F 7.5 °F 88% 30.38 in - West 17.3 mph - N/A   Unknown
7:00 AM 9.1 °F -7.0 °F 6.4 °F 89% 30.38 in - WNW 13.8 mph - N/A   Unknown
8:00 AM 14.4 °F -2.5 °F 11.8 °F 90% 30.38 in - WNW 18.4 mph - N/A   Unknown
9:00 AM 13.8 °F -3.2 °F 11.1 °F 89% 30.38 in - West 18.4 mph - N/A   Unknown
10:00 AM 12.9 °F -3.4 °F 10.2 °F 89% 30.38 in - West 16.1 mph - N/A   Unknown
11:00 AM 14.5 °F -2.7 °F 11.3 °F 87% 30.38 in - West 19.6 mph - N/A   Unknown
1:00 PM 16.2 °F -0.6 °F 13.1 °F 88% 30.39 in - West 19.6 mph - N/A   Unknown
3:00 PM 16.0 °F 0.6 °F 13.5 °F 90% - - WNW 16.1 mph - N/A   Unknown
4:00 PM 14.7 °F -0.5 °F 11.8 °F 88% 30.42 in - WNW 15.0 mph - N/A   Unknown
5:00 PM 12.4 °F -2.9 °F 9.7 °F 89% 30.43 in - WNW 13.8 mph - N/A   Unknown
6:00 PM 10 °F - 8 °F 86%  in - WNW 15.0 mph - -  
6:00 PM 9.9 °F -6.7 °F 7.7 °F 91% - - WNW 15.0 mph - N/A   Unknown
8:00 PM 14.2 °F -1.2 °F 10.2 °F 84% 30.43 in - WNW 15.0 mph - N/A   Unknown
9:00 PM 16.0 °F 2.9 °F 11.5 °F 82% 30.44 in - West 11.5 mph - N/A   Unknown
10:00 PM 17.6 °F 4.3 °F 12.2 °F 79% 30.44 in - WNW 12.7 mph - N/A   Unknown
11:00 PM 17.8 °F 4.6 °F 12.4 °F 79% 30.44 in - West 12.7 mph - N/A   Unknown